Weather History for Cooperstown, ND

Change the Weather History Date:

Thursday, November 1, 2012

  Actual Average (KJMS) Record (KJMS)
Temperature  
Mean Temperature 30 °F 36 °F  
Max Temperature 35 °F 47 °F 77 °F (1904)
Min Temperature 26 °F 26 °F -5 °F (1935)
Degree Days  
Heating Degree Days 34 29  
Month to date heating degree days 29  
Since 1 July heating degree days 996  
Cooling Degree Days 0 0  
Month to date cooling degree days 0  
Year to date cooling degree days 446  
Moisture  
Dew Point 25 °F    
Average Humidity 88    
Maximum Humidity 100    
Minimum Humidity 75    
Precipitation  
Precipitation 0.00 in 0.03 in 0.48 in (1992)
Month to date precipitation 0.03  
Year to date precipitation 17.77  
Sea Level Pressure  
Sea Level Pressure 30.11 in    
Wind  
Wind Speed 12 mph (NNE)    
Max Wind Speed 17 mph    
Max Gust Speed 23 mph    
Visibility 10 miles    
Events      
T = Trace of Precipitation, MM = Missing Value Source: NWS Daily Summary

Daily Weather History Graph

Daily Weather History Graph

Search for Another Location

Airport:

Trip Planner

Search our weather history database for the weather conditions in past years. The results will help you decide how hot, cold, wet, or windy it might be!

Date:

Astronomy

Nov. 01, 2012 Rise Set
Actual Time 8:16 AM CDT 6:14 PM CDT
Civil Twilight 7:44 AM CDT 6:46 PM CDT
Nautical Twilight 7:08 AM CDT 7:22 PM CDT
Astronomical Twilight 6:32 AM CDT 7:58 PM CDT
Moon 8:03 PM CDT (11/1) 10:59 AM CDT (11/1)
Length of Visible Light 11h 01m
Length of Day
9h 57m
Waning Gibbous, 93% of the Moon is Illuminated
Nov 1
Waning Gibbous
Nov 6
Last Quarter
Nov 13
New
Nov 20
First Quarter
Nov 28
Full

Hourly Weather History & Observations

Time (CDT) Temp. Windchill Dew Point Humidity Pressure Visibility Wind Dir Wind Speed Gust Speed Precip Events Conditions
12:15 AM 35.6 °F 25.5 °F 32.0 °F 87% 30.08 in 10.0 mi North 17.3 mph - N/A   Overcast
12:35 AM 35.6 °F 26.2 °F 32.0 °F 87% 30.09 in 10.0 mi North 15.0 mph - N/A   Overcast
12:55 AM 35.6 °F 28.0 °F 32.0 °F 87% 30.09 in 10.0 mi North 10.4 mph 16.1 mph N/A   Overcast
1:15 AM 33.8 °F 23.5 °F 30.2 °F 87% 30.09 in 10.0 mi North 16.1 mph 19.6 mph N/A   Overcast
1:35 AM 32.0 °F 23.0 °F 28.4 °F 87% 30.10 in 10.0 mi North 11.5 mph - N/A   Scattered Clouds
1:55 AM 30.2 °F 21.3 °F 28.4 °F 93% 30.11 in 10.0 mi North 10.4 mph - N/A   Clear
2:15 AM 28.4 °F 21.2 °F 28.4 °F 100% 30.11 in 10.0 mi NNW 6.9 mph - N/A   Clear
2:35 AM 28.4 °F 19.1 °F 26.6 °F 93% 30.12 in 10.0 mi NNW 10.4 mph - N/A   Partly Cloudy
2:55 AM 28.4 °F 18.5 °F 26.6 °F 93% 30.12 in 10.0 mi NNW 11.5 mph - N/A   Mostly Cloudy
3:15 AM 28.4 °F 19.7 °F 26.6 °F 93% 30.11 in 10.0 mi North 9.2 mph - N/A   Mostly Cloudy
3:35 AM 26.6 °F 16.8 °F 26.6 °F 100% 30.12 in 10.0 mi North 10.4 mph - N/A   Partly Cloudy
3:55 AM 28.4 °F 19.7 °F 26.6 °F 93% 30.12 in 10.0 mi North 9.2 mph - N/A   Mostly Cloudy
4:15 AM 28.4 °F 18.0 °F 26.6 °F 93% 30.13 in 10.0 mi North 12.7 mph - N/A   Overcast
4:35 AM 28.4 °F 18.5 °F 26.6 °F 93% 30.12 in 10.0 mi North 11.5 mph - N/A   Overcast
4:55 AM 28.4 °F 17.5 °F 24.8 °F 86% 30.13 in 10.0 mi North 13.8 mph - N/A   Overcast
5:15 AM 28.4 °F 16.6 °F 24.8 °F 86% 30.13 in 10.0 mi North 16.1 mph 20.7 mph N/A   Overcast
5:35 AM 28.4 °F 16.6 °F 24.8 °F 86% 30.14 in 10.0 mi NNE 16.1 mph - N/A   Overcast
5:55 AM 28.4 °F 16.6 °F 24.8 °F 86% 30.12 in 10.0 mi NNE 16.1 mph 23.0 mph N/A   Overcast
6:15 AM 26.6 °F 15.7 °F 24.8 °F 93% 30.13 in 10.0 mi North 12.7 mph - N/A   Overcast
6:35 AM 26.6 °F 15.2 °F 24.8 °F 93% 30.12 in 10.0 mi NNE 13.8 mph 20.7 mph N/A   Overcast
7:35 AM 26.6 °F 15.7 °F 24.8 °F 93% 30.13 in 10.0 mi North 12.7 mph - N/A   Overcast
7:55 AM 26.6 °F 14.7 °F 24.8 °F 93% 30.13 in 10.0 mi North 15.0 mph - N/A   Overcast
8:35 AM 26.6 °F 15.7 °F 24.8 °F 93% 30.13 in 10.0 mi NNE 12.7 mph - N/A   Overcast
8:55 AM 26.6 °F 16.2 °F 24.8 °F 93% 30.15 in 10.0 mi NNE 11.5 mph - N/A   Overcast
9:15 AM 26.6 °F 16.2 °F 23.0 °F 86% 30.15 in 10.0 mi NNE 11.5 mph 17.3 mph N/A   Overcast
9:35 AM 26.6 °F 16.8 °F 23.0 °F 86% 30.15 in 10.0 mi NNE 10.4 mph - N/A   Overcast
9:55 AM 26.6 °F 14.7 °F 23.0 °F 86% 30.15 in 10.0 mi NE 15.0 mph - N/A   Overcast
10:15 AM 26.6 °F 16.8 °F 23.0 °F 86% 30.16 in 10.0 mi NNE 10.4 mph - N/A   Overcast
10:35 AM 26.6 °F 15.7 °F 23.0 °F 86% 30.15 in 10.0 mi NNE 12.7 mph - N/A   Overcast
10:55 AM 26.6 °F 16.2 °F 23.0 °F 86% 30.15 in 10.0 mi NE 11.5 mph - N/A   Overcast
11:15 AM 26.6 °F 17.5 °F 23.0 °F 86% 30.15 in 10.0 mi NNE 9.2 mph - N/A   Overcast
11:35 AM 26.6 °F 18.2 °F 23.0 °F 86% 30.15 in 10.0 mi NNE 8.1 mph - N/A   Overcast
12:15 PM 26.6 °F 16.8 °F 23.0 °F 86% 30.15 in 10.0 mi NNE 10.4 mph - N/A   Overcast
12:35 PM 28.4 °F 18.0 °F 23.0 °F 80% 30.14 in 10.0 mi North 12.7 mph - N/A   Overcast
12:55 PM 28.4 °F 18.5 °F 23.0 °F 80% 30.13 in 10.0 mi NNE 11.5 mph - N/A   Overcast
1:15 PM 28.4 °F 18.5 °F 23.0 °F 80% 30.13 in 10.0 mi NNE 11.5 mph - N/A   Overcast
1:35 PM 28.4 °F 18.5 °F 23.0 °F 80% 30.12 in 10.0 mi NE 11.5 mph - N/A   Overcast
1:55 PM 28.4 °F 18.5 °F 23.0 °F 80% 30.11 in 10.0 mi NNE 11.5 mph - N/A   Overcast
2:15 PM 28.4 °F 18.5 °F 23.0 °F 80% 30.10 in 10.0 mi NNE 11.5 mph - N/A   Overcast
2:35 PM 28.4 °F 19.1 °F 23.0 °F 80% 30.11 in 10.0 mi NNE 10.4 mph - N/A   Mostly Cloudy
2:55 PM 30.2 °F 20.8 °F 23.0 °F 75% 30.10 in 10.0 mi NE 11.5 mph 16.1 mph N/A   Scattered Clouds
3:15 PM 28.4 °F 18.5 °F 23.0 °F 80% 30.10 in 10.0 mi NNE 11.5 mph 16.1 mph N/A   Scattered Clouds
3:35 PM 28.4 °F 19.1 °F 23.0 °F 80% 30.10 in 10.0 mi NE 10.4 mph - N/A   Partly Cloudy
3:55 PM 28.4 °F 19.7 °F 23.0 °F 80% 30.10 in 10.0 mi NE 9.2 mph - N/A   Partly Cloudy
4:15 PM 28.4 °F 18.5 °F 23.0 °F 80% 30.09 in 9.0 mi NE 11.5 mph - N/A   Partly Cloudy
4:55 PM 28.4 °F 18.5 °F 23.0 °F 80% 30.10 in 10.0 mi NE 11.5 mph - N/A   Scattered Clouds
5:15 PM 26.6 °F 15.2 °F 23.0 °F 86% 30.09 in 10.0 mi NE 13.8 mph - N/A   Mostly Cloudy
5:35 PM 26.6 °F 16.2 °F 23.0 °F 86% 30.10 in 10.0 mi NE 11.5 mph - N/A   Mostly Cloudy
5:55 PM 26.6 °F 16.2 °F 23.0 °F 86% 30.10 in 10.0 mi NE 11.5 mph - N/A   Overcast
6:15 PM 26.6 °F 18.2 °F 23.0 °F 86% 30.10 in 10.0 mi NE 8.1 mph - N/A   Overcast
6:35 PM 26.6 °F 16.8 °F 23.0 °F 86% 30.10 in 10.0 mi NE 10.4 mph - N/A   Overcast
6:55 PM 26.6 °F 15.7 °F 23.0 °F 86% 30.10 in 10.0 mi ENE 12.7 mph - N/A   Overcast
7:15 PM 26.6 °F 15.2 °F 23.0 °F 86% 30.10 in 10.0 mi NE 13.8 mph - N/A   Overcast
7:35 PM 26.6 °F 16.8 °F 23.0 °F 86% 30.10 in 10.0 mi ENE 10.4 mph - N/A   Overcast
7:55 PM 26.6 °F 14.7 °F 23.0 °F 86% 30.10 in 10.0 mi ENE 15.0 mph - N/A   Overcast
8:15 PM 26.6 °F 14.7 °F 23.0 °F 86% 30.10 in 10.0 mi ENE 15.0 mph 20.7 mph N/A   Overcast
8:35 PM 26.6 °F 15.2 °F 23.0 °F 86% 30.10 in 10.0 mi ENE 13.8 mph - N/A   Overcast
8:55 PM 26.6 °F 16.8 °F 24.8 °F 93% 30.10 in 10.0 mi ENE 10.4 mph - N/A   Overcast
9:15 PM 26.6 °F 14.7 °F 24.8 °F 93% 30.09 in 10.0 mi ENE 15.0 mph - N/A   Overcast
9:35 PM 26.6 °F 15.2 °F 24.8 °F 93% 30.09 in 10.0 mi ENE 13.8 mph - N/A   Overcast
9:55 PM 26.6 °F 16.8 °F 24.8 °F 93% 30.09 in 10.0 mi ENE 10.4 mph - N/A   Overcast
10:15 PM 26.6 °F 16.2 °F 24.8 °F 93% 30.09 in 10.0 mi ENE 11.5 mph - N/A   Overcast
10:35 PM 26.6 °F 16.8 °F 24.8 °F 93% 30.10 in 10.0 mi ENE 10.4 mph - N/A   Overcast
10:55 PM 26.6 °F 17.5 °F 24.8 °F 93% 30.11 in 10.0 mi ENE 9.2 mph - N/A   Overcast
11:15 PM 26.6 °F 19.1 °F 24.8 °F 93% 30.11 in 10.0 mi ENE 6.9 mph - N/A   Overcast
11:35 PM 26.6 °F 17.5 °F 24.8 °F 93% 30.11 in 10.0 mi ENE 9.2 mph - N/A   Overcast
11:55 PM 26.6 °F 17.5 °F 24.8 °F 93% 30.09 in 10.0 mi ENE 9.2 mph - N/A   Mostly Cloudy